Location: *
(50.3440°N, 18.6237°E)
Time: 18:05:37
(UTC+00:00)

Cosmos 44 Rocket - Pass Details

Date: 30 November 2020
Orbit: 639 x 751 km, 65.1° (Epoch: 22 January)

Event Time Altitude Azimuth Distance (km) Brightness Sun altitude
Rises 16:54:14 0° 320° (NW) 3,159 7.1 -19.7°
Reaches altitude 10° 16:56:37 10° 323° (NW) 2,248 6.2 -20.1°
Maximum altitude 17:01:46 68° 47° (NE) 803 3.3 -20.9°
Enters shadow 17:03:30 41° 116° (ESE) 1,073 3.8 -21.1°
